White Plains, CT

11:11 PM EDT on October 18, 2019 (GMT -0400)
Westchester County

Weather History for KHPN - September, 2019

Change the Weather History Date:

Friday, September 20, 2019

  Actual Average Record
Temperature  
Mean Temperature 64 °F -  
Max Temperature 78 °F 70 °F 91 °F (1983)
Min Temperature 50 °F 53 °F 32 °F (2004)
Degree Days  
Heating Degree Days 2    
Growing Degree Days 14 (Base 50)    
Moisture  
Dew Point 46 °F    
Average Humidity 58    
Maximum Humidity 89    
Minimum Humidity 30    
Precipitation  
Precipitation 0.00 in - - ()
Sea Level Pressure  
Sea Level Pressure 30.21 in    
Wind  
Wind Speed 6 mph ()    
Max Wind Speed 14 mph    
Max Gust Speed 21 mph    
Visibility 10.0 miles    
Events      
Averages and records for this station are not official NWS values.
T = Trace of Precipitation, MM = Missing Value Source: Averaged Metar Reports

Daily Weather History Graph

Daily Weather History Graph

Search for Another Location

Airport or City:

Astronomy

Sep. 20, 2019 Rise Set
Actual Time 6:40 AM EDT 6:55 PM EDT
Civil Twilight 6:12 AM EDT 7:23 PM EDT
Nautical Twilight 5:40 AM EDT 7:55 PM EDT
Astronomical Twilight 5:07 AM EDT 8:28 PM EDT
Moon 10:40 PM EDT (9/20) 12:45 PM EDT (9/20)
Length of Visible Light 13h 10m
Length of Day
12h 15m
Waning Gibbous, 65% of the Moon is Illuminated
Sep 20
Waning Gibbous
Sep 21
Last Quarter
Sep 28
New
Oct 5
First Quarter
Oct 13
Full

Hourly Weather History & Observations

Time (EDT) Temp. Dew Point Humidity Pressure Visibility Wind Dir Wind Speed Gust Speed Precip Events Conditions
12:56 AM 50.0 °F 46.9 °F 89% 30.26 in 10.0 mi WNW 3.5 mph - N/A   Clear
1:56 AM 50.0 °F 43.0 °F 77% 30.25 in 10.0 mi West 4.6 mph - N/A   Clear
2:56 AM 52.0 °F 43.0 °F 71% 30.25 in 10.0 mi West 6.9 mph - N/A   Clear
3:56 AM 52.0 °F 43.0 °F 71% 30.23 in 10.0 mi WNW 9.2 mph - N/A   Clear
4:56 AM 52.0 °F 43.0 °F 71% 30.24 in 10.0 mi WNW 8.1 mph - N/A   Clear
5:56 AM 52.0 °F 44.1 °F 74% 30.25 in 10.0 mi WNW 6.9 mph - N/A   Clear
6:56 AM 50.0 °F 45.0 °F 83% 30.26 in 10.0 mi WNW 8.1 mph - N/A   Clear
7:56 AM 55.0 °F 48.0 °F 77% 30.27 in 10.0 mi WNW 5.8 mph - N/A   Clear
8:56 AM 60.1 °F 46.9 °F 62% 30.27 in 10.0 mi WNW 8.1 mph - N/A   Clear
9:56 AM 64.9 °F 46.0 °F 50% 30.26 in 10.0 mi WNW 9.2 mph - N/A   Clear
10:56 AM 68.0 °F 45.0 °F 43% 30.25 in 10.0 mi WNW 11.5 mph - N/A   Clear
11:56 AM 70.0 °F 46.0 °F 42% 30.23 in 10.0 mi NW 13.8 mph 20.7 mph N/A   Clear
12:56 PM 73.0 °F 44.1 °F 35% 30.21 in 10.0 mi WNW 11.5 mph - N/A   Clear
1:56 PM 73.9 °F 43.0 °F 33% 30.19 in 10.0 mi WNW 10.4 mph - N/A   Clear
2:56 PM 75.0 °F 43.0 °F 32% 30.17 in 10.0 mi NW 9.2 mph - N/A   Clear
3:56 PM 77.0 °F 44.1 °F 31% 30.15 in 10.0 mi WNW 8.1 mph - N/A   Clear
4:56 PM 77.0 °F 43.0 °F 30% 30.14 in 10.0 mi NW 6.9 mph - N/A   Clear
5:56 PM 75.0 °F 46.0 °F 36% 30.15 in 10.0 mi Calm Calm - N/A   Clear
6:56 PM 66.9 °F 48.0 °F 51% 30.16 in 10.0 mi Calm Calm - N/A   Clear
7:56 PM 64.0 °F 48.9 °F 58% 30.17 in 10.0 mi Calm Calm - N/A   Clear
8:56 PM 61.0 °F 53.1 °F 75% 30.18 in 10.0 mi Calm Calm - N/A   Clear
9:56 PM 62.1 °F 51.1 °F 67% 30.19 in 10.0 mi Calm Calm - N/A   Clear
10:56 PM 64.9 °F 50.0 °F 58% 30.17 in 10.0 mi West 5.8 mph - N/A   Clear
11:56 PM 60.1 °F 50.0 °F 69% 30.17 in 10.0 mi West 5.8 mph - N/A   Clear